| time (UTC) | temp C | wind direction | speed KPH | gust KPH | rain 1hr cm | rain 24hr cm | rain mn cm | humidity % | barometer mb |
| 20260505053056 | 16 | 168 | 0.0 | 0.0 | 0.00 | 0.00 | 0.00 | 65 | 1011.6 |
| 20260505051546 | 16 | 168 | 0.0 | 0.0 | 0.00 | 0.00 | 0.00 | 65 | 1011.7 |
| 20260505041542 | 16 | 166 | 0.0 | 0.0 | 0.00 | 0.00 | 0.00 | 67 | 1011.3 |
| 20260505040042 | 16 | 190 | 0.0 | 0.0 | 0.00 | 0.00 | 0.00 | 66 | 1011.3 |
| 20260505034537 | 16 | 176 | 0.0 | 0.0 | 0.00 | 0.00 | 0.00 | 66 | 1011.3 |
| 20260505033041 | 16 | 174 | 0.0 | 0.0 | 0.00 | 0.00 | 0.00 | 65 | 1011.3 |
| 20260505031536 | 16 | 165 | 0.0 | 0.0 | 0.00 | 0.00 | 0.00 | 64 | 1011.3 |
| 20260505030037 | 16 | 165 | 0.0 | 0.0 | 0.00 | 0.00 | 0.00 | 63 | 1011.4 |
| 20260505024535 | 16 | 160 | 0.0 | 0.0 | 0.00 | 0.00 | 0.00 | 63 | 1011.3 |
| 20260505023035 | 16 | 165 | 0.0 | 0.0 | 0.00 | 0.00 | 0.00 | 62 | 1011.3 |
| 20260505021535 | 16 | 166 | 0.0 | 1.6 | 0.00 | 0.00 | 0.00 | 61 | 1011.3 |
| 20260505020033 | 16 | 166 | 0.0 | 0.0 | 0.00 | 0.00 | 0.00 | 60 | 1011.4 |
| 20260505014533 | 16 | 177 | 0.0 | 0.0 | 0.00 | 0.00 | 0.00 | 58 | 1011.3 |
| 20260505013032 | 17 | 177 | 0.0 | 0.0 | 0.00 | 0.00 | 0.00 | 57 | 1011.1 |
| 20260505011534 | 17 | 178 | 0.0 | 0.0 | 0.00 | 0.00 | 0.00 | 56 | 1011.1 |
| 20260505010031 | 17 | 176 | 0.0 | 0.0 | 0.00 | 0.00 | 0.00 | 54 | 1010.9 |
| 20260505004534 | 17 | 166 | 0.0 | 0.0 | 0.00 | 0.00 | 0.00 | 53 | 1010.9 |
| 20260505003030 | 18 | 161 | 0.0 | 0.0 | 0.00 | 0.00 | 0.00 | 51 | 1011.0 |
| 20260505001530 | 18 | 145 | 0.0 | 0.0 | 0.00 | 0.00 | 0.00 | 50 | 1010.8 |
| 20260505000029 | 18 | 192 | 0.0 | 0.0 | 0.00 | 0.00 | 0.00 | 49 | 1010.9 |
| 20260504234528 | 18 | 165 | 0.0 | 1.6 | 0.00 | 0.00 | 0.00 | 49 | 1010.8 |
| 20260504233029 | 18 | 173 | 0.0 | 0.0 | 0.00 | 0.00 | 0.00 | 47 | 1010.8 |
| 20260504231528 | 19 | 169 | 0.0 | 1.6 | 0.00 | 0.00 | 0.00 | 47 | 1010.8 |
| 20260504230028 | 19 | 153 | 0.0 | 0.0 | 0.00 | 0.00 | 0.00 | 47 | 1010.8 |
| 20260504224527 | 20 | 164 | 0.0 | 4.8 | 0.00 | 0.00 | 0.00 | 45 | 1010.8 |
| 20260504223026 | 20 | 150 | 0.0 | 1.6 | 0.00 | 0.00 | 0.00 | 43 | 1010.8 |
| 20260504221524 | 20 | 167 | 0.0 | 0.0 | 0.00 | 0.00 | 0.00 | 42 | 1010.7 |
| 20260504220024 | 20 | 163 | 0.0 | 0.0 | 0.00 | 0.00 | 0.00 | 44 | 1010.7 |
| 20260504214521 | 20 | 155 | 0.0 | 0.0 | 0.00 | 0.00 | 0.00 | 43 | 1010.8 |
| 20260504213023 | 21 | 136 | 0.0 | 1.6 | 0.00 | 0.00 | 0.00 | 42 | 1010.8 |
| 20260504211520 | 21 | 137 | 0.0 | 0.0 | 0.00 | 0.00 | 0.00 | 42 | 1010.8 |
| 20260504210023 | 21 | 153 | 0.0 | 1.6 | 0.00 | 0.00 | 0.00 | 42 | 1010.9 |
| 20260504204518 | 21 | 155 | 0.0 | 0.0 | 0.00 | 0.00 | 0.00 | 43 | 1011.1 |
| 20260504203018 | 21 | 149 | 0.0 | 0.0 | 0.00 | 0.00 | 0.00 | 41 | 1011.0 |
| 20260504201516 | 21 | 157 | 0.0 | 0.0 | 0.00 | 0.00 | 0.00 | 42 | 1011.2 |
| 20260504200027 | 21 | 192 | 0.0 | 0.0 | 0.00 | 0.00 | 0.00 | 44 | 1011.5 |
| 20260504194513 | 21 | 161 | 0.0 | 0.0 | 0.00 | 0.00 | 0.00 | 44 | 1011.7 |
| 20260504193012 | 21 | 170 | 0.0 | 0.0 | 0.00 | 0.00 | 0.00 | 45 | 1011.9 |
| 20260504191524 | 21 | 165 | 0.0 | 0.0 | 0.00 | 0.00 | 0.00 | 42 | 1012.1 |
| 20260504190011 | 21 | 175 | 0.0 | 1.6 | 0.00 | 0.00 | 0.00 | 42 | 1012.2 |
| 20260504184512 | 21 | 189 | 0.0 | 0.0 | 0.00 | 0.00 | 0.00 | 44 | 1012.6 |
| 20260504183007 | 21 | 184 | 0.0 | 0.0 | 0.00 | 0.00 | 0.00 | 40 | 1012.6 |
| 20260504181504 | 21 | 175 | 0.0 | 12.9 | 0.00 | 0.00 | 0.00 | 37 | 1012.6 |
| 20260504180001 | 21 | 144 | 0.0 | 1.6 | 0.00 | 0.00 | 0.00 | 38 | 1013.0 |
| 20260504174610 | 22 | 166 | 0.0 | 0.0 | 0.00 | 0.00 | 0.00 | 35 | 1013.1 |
| 20260504173104 | 21 | 240 | 0.0 | 4.8 | 0.00 | 0.00 | 0.00 | 41 | 1013.3 |
| 20260504171555 | 21 | 168 | 0.0 | 1.6 | 0.00 | 0.00 | 0.00 | 41 | 1013.4 |
| 20260504081523 | 5 | 336 | 0.0 | 0.0 | 0.00 | 0.00 | 0.00 | 76 | 1016.4 |